Year,Month,Day,Hour,Minute,Value (Times are PST for temperature in C)
2020,04,03,00,00,3.20
2020,04,03,00,01,3.20
2020,04,03,00,02,3.20
2020,04,03,00,03,3.10
2020,04,03,00,04,3.10
2020,04,03,00,05,3.10
2020,04,03,00,06,3.10
2020,04,03,00,07,3.10
2020,04,03,00,08,3.10
2020,04,03,00,09,3.10
2020,04,03,00,10,3.00
2020,04,03,00,11,3.00
2020,04,03,00,12,3.00
2020,04,03,00,13,3.00
2020,04,03,00,14,3.00
2020,04,03,00,15,3.00
2020,04,03,00,16,2.90
2020,04,03,00,17,2.90
2020,04,03,00,18,2.90
2020,04,03,00,19,2.90
2020,04,03,00,20,2.90
2020,04,03,00,21,2.80
2020,04,03,00,22,2.80
2020,04,03,00,23,2.80
2020,04,03,00,24,2.80
2020,04,03,00,25,2.80
2020,04,03,00,26,2.80
2020,04,03,00,27,2.80
2020,04,03,00,28,2.80
2020,04,03,00,29,2.80
2020,04,03,00,30,2.90
2020,04,03,00,31,2.90
2020,04,03,00,32,2.90
2020,04,03,00,33,2.90
2020,04,03,00,34,2.90
2020,04,03,00,35,2.90
2020,04,03,00,36,2.90
2020,04,03,00,37,2.90
2020,04,03,00,38,3.00
2020,04,03,00,39,3.00
2020,04,03,00,40,3.00
2020,04,03,00,41,3.00
2020,04,03,00,42,3.00
2020,04,03,00,43,3.00
2020,04,03,00,44,3.00
2020,04,03,00,45,3.00
2020,04,03,00,46,3.00
2020,04,03,00,47,3.00
2020,04,03,00,48,3.00
2020,04,03,00,49,3.00
2020,04,03,00,50,2.90
2020,04,03,00,51,2.90
2020,04,03,00,52,2.90
2020,04,03,00,53,2.90
2020,04,03,00,54,2.80
2020,04,03,00,55,2.80
2020,04,03,00,56,2.80
2020,04,03,00,57,2.80
2020,04,03,00,58,2.70
2020,04,03,00,59,2.70
2020,04,03,01,00,2.70
2020,04,03,01,01,2.70
2020,04,03,01,02,2.70
2020,04,03,01,03,2.60
2020,04,03,01,04,2.60
2020,04,03,01,05,2.60
2020,04,03,01,06,2.60
2020,04,03,01,07,2.60
2020,04,03,01,08,2.60
2020,04,03,01,09,2.60
2020,04,03,01,10,2.60
2020,04,03,01,11,2.60
2020,04,03,01,12,2.60
2020,04,03,01,13,2.60
2020,04,03,01,14,2.60
2020,04,03,01,15,2.60
2020,04,03,01,16,2.70
2020,04,03,01,17,2.70
2020,04,03,01,18,2.70
2020,04,03,01,19,2.70
2020,04,03,01,20,2.80
2020,04,03,01,21,2.80
2020,04,03,01,22,2.80
2020,04,03,01,23,2.90
2020,04,03,01,24,3.00
2020,04,03,01,25,3.10
2020,04,03,01,26,3.20
2020,04,03,01,27,3.20
2020,04,03,01,28,3.20
2020,04,03,01,29,3.20
2020,04,03,01,30,3.20
2020,04,03,01,31,3.30
2020,04,03,01,32,3.20
2020,04,03,01,33,3.20
2020,04,03,01,34,3.30
2020,04,03,01,35,3.30
2020,04,03,01,36,3.30
2020,04,03,01,37,3.30
2020,04,03,01,38,3.30
2020,04,03,01,39,3.30
2020,04,03,01,40,3.30
2020,04,03,01,41,3.30
2020,04,03,01,42,3.30
2020,04,03,01,43,3.30
2020,04,03,01,44,3.30
2020,04,03,01,45,3.30
2020,04,03,01,46,3.30
2020,04,03,01,47,3.30
2020,04,03,01,48,3.30
2020,04,03,01,49,3.30
2020,04,03,01,50,3.30
2020,04,03,01,51,3.30
2020,04,03,01,52,3.30
2020,04,03,01,53,3.40
2020,04,03,01,54,3.40
2020,04,03,01,55,3.40
2020,04,03,01,56,3.40
2020,04,03,01,57,3.40
2020,04,03,01,58,3.40
2020,04,03,01,59,3.40
2020,04,03,02,00,3.40
2020,04,03,02,01,3.40
2020,04,03,02,02,3.40
2020,04,03,02,03,3.40
2020,04,03,02,04,3.40
2020,04,03,02,05,3.40
2020,04,03,02,06,3.40
2020,04,03,02,07,3.40
2020,04,03,02,08,3.40
2020,04,03,02,09,3.30
2020,04,03,02,10,3.30
2020,04,03,02,11,3.30
2020,04,03,02,12,3.30
2020,04,03,02,13,3.30
2020,04,03,02,14,3.30
2020,04,03,02,15,3.30
2020,04,03,02,16,3.30
2020,04,03,02,17,3.30
2020,04,03,02,18,3.30
2020,04,03,02,19,3.30
2020,04,03,02,20,3.20
2020,04,03,02,21,3.30
2020,04,03,02,22,3.30
2020,04,03,02,23,3.30
2020,04,03,02,24,3.30
2020,04,03,02,25,3.30
2020,04,03,02,26,3.30
2020,04,03,02,27,3.30
2020,04,03,02,28,3.30
2020,04,03,02,29,3.30
2020,04,03,02,30,3.30
2020,04,03,02,31,3.30
2020,04,03,02,32,3.40
2020,04,03,02,33,3.40
2020,04,03,02,34,3.50
2020,04,03,02,35,3.50
2020,04,03,02,36,3.60
2020,04,03,02,37,3.60
2020,04,03,02,38,3.60
2020,04,03,02,39,3.70
2020,04,03,02,40,3.60
2020,04,03,02,41,3.70
2020,04,03,02,42,3.60
2020,04,03,02,43,3.60
2020,04,03,02,44,3.60
2020,04,03,02,45,3.60
2020,04,03,02,46,3.60
2020,04,03,02,47,3.60
2020,04,03,02,48,3.60
2020,04,03,02,49,3.60
2020,04,03,02,50,3.60
2020,04,03,02,51,3.60
2020,04,03,02,52,3.50
2020,04,03,02,53,3.50
2020,04,03,02,54,3.50
2020,04,03,02,55,3.50
2020,04,03,02,56,3.50
2020,04,03,02,57,3.50
2020,04,03,02,58,3.50
2020,04,03,02,59,3.50
2020,04,03,03,00,3.50
2020,04,03,03,01,3.50
2020,04,03,03,02,3.50
2020,04,03,03,03,3.50
2020,04,03,03,04,3.60
2020,04,03,03,05,3.50
2020,04,03,03,06,3.50
2020,04,03,03,07,3.50
2020,04,03,03,08,3.50
2020,04,03,03,09,3.40
2020,04,03,03,10,3.40
2020,04,03,03,11,3.40
2020,04,03,03,12,3.30
2020,04,03,03,13,3.30
2020,04,03,03,14,3.20
2020,04,03,03,15,3.20
2020,04,03,03,16,3.20
2020,04,03,03,17,3.10
2020,04,03,03,18,3.10
2020,04,03,03,19,3.10
2020,04,03,03,20,3.10
2020,04,03,03,21,3.10
2020,04,03,03,22,3.10
2020,04,03,03,23,3.00
2020,04,03,03,24,3.00
2020,04,03,03,25,3.00
2020,04,03,03,26,3.00
2020,04,03,03,27,3.00
2020,04,03,03,28,2.90
2020,04,03,03,29,2.90
2020,04,03,03,30,2.90
2020,04,03,03,31,2.90
2020,04,03,03,32,2.90
2020,04,03,03,33,2.90
2020,04,03,03,34,2.80
2020,04,03,03,35,2.80
2020,04,03,03,36,2.80
2020,04,03,03,37,2.80
2020,04,03,03,38,2.80
2020,04,03,03,39,2.80
2020,04,03,03,40,2.80
2020,04,03,03,41,2.80
2020,04,03,03,42,2.80
2020,04,03,03,43,2.80
2020,04,03,03,44,2.80
2020,04,03,03,45,2.80
2020,04,03,03,46,2.80
2020,04,03,03,47,2.70
2020,04,03,03,48,2.70
2020,04,03,03,49,2.70
2020,04,03,03,50,2.70
2020,04,03,03,51,2.70
2020,04,03,03,52,2.70
2020,04,03,03,53,2.70
2020,04,03,03,54,2.70
2020,04,03,03,55,2.70
2020,04,03,03,56,2.70
2020,04,03,03,57,2.70
2020,04,03,03,58,2.70
2020,04,03,03,59,2.70
2020,04,03,04,00,2.70
2020,04,03,04,01,2.70
2020,04,03,04,02,2.60
2020,04,03,04,03,2.60
2020,04,03,04,04,2.60
2020,04,03,04,05,2.60
2020,04,03,04,06,2.50
2020,04,03,04,07,2.50
2020,04,03,04,08,2.50
2020,04,03,04,09,2.40
2020,04,03,04,10,2.40
2020,04,03,04,11,2.40
2020,04,03,04,12,2.40
2020,04,03,04,13,2.40
2020,04,03,04,14,2.30
2020,04,03,04,15,2.30
2020,04,03,04,16,2.30
2020,04,03,04,17,2.30
2020,04,03,04,18,2.30
2020,04,03,04,19,2.30
2020,04,03,04,20,2.30
2020,04,03,04,21,2.30
2020,04,03,04,22,2.30
2020,04,03,04,23,2.30
2020,04,03,04,24,2.30
2020,04,03,04,25,2.30
2020,04,03,04,26,2.30
2020,04,03,04,27,2.30
2020,04,03,04,28,2.30
2020,04,03,04,29,2.30
2020,04,03,04,30,2.30
2020,04,03,04,31,2.30
2020,04,03,04,32,2.30
2020,04,03,04,33,2.30
2020,04,03,04,34,2.20
2020,04,03,04,35,2.30
2020,04,03,04,36,2.30
2020,04,03,04,37,2.30
2020,04,03,04,38,2.30
2020,04,03,04,39,2.30
2020,04,03,04,40,2.30
2020,04,03,04,41,2.30
2020,04,03,04,42,2.30
2020,04,03,04,43,2.30
2020,04,03,04,44,2.30
2020,04,03,04,45,2.40
2020,04,03,04,46,2.40
2020,04,03,04,47,2.40
2020,04,03,04,48,2.40
2020,04,03,04,49,2.40
2020,04,03,04,50,2.40
2020,04,03,04,51,2.40
2020,04,03,04,52,2.40
2020,04,03,04,53,2.50
2020,04,03,04,54,2.50
2020,04,03,04,55,2.60
2020,04,03,04,56,2.60
2020,04,03,04,57,2.60
2020,04,03,04,58,2.60
2020,04,03,04,59,2.60
2020,04,03,05,00,2.70
2020,04,03,05,01,2.70
2020,04,03,05,02,2.80
2020,04,03,05,03,2.80
2020,04,03,05,04,2.90
2020,04,03,05,05,2.90
2020,04,03,05,06,3.00
2020,04,03,05,07,3.10
2020,04,03,05,08,3.10
2020,04,03,05,09,3.20
2020,04,03,05,10,3.30
2020,04,03,05,11,3.30
2020,04,03,05,12,3.30
2020,04,03,05,13,3.30
2020,04,03,05,14,3.30
2020,04,03,05,15,3.30
2020,04,03,05,16,3.30
2020,04,03,05,17,3.40
2020,04,03,05,18,3.40
2020,04,03,05,19,3.40
2020,04,03,05,20,3.40
2020,04,03,05,21,3.40
2020,04,03,05,22,3.40
2020,04,03,05,23,3.40
2020,04,03,05,24,3.40
2020,04,03,05,25,3.50
2020,04,03,05,26,3.50
2020,04,03,05,27,3.50
2020,04,03,05,28,3.50
2020,04,03,05,29,3.40
2020,04,03,05,30,3.50
2020,04,03,05,31,3.50
2020,04,03,05,32,3.50
2020,04,03,05,33,3.50
2020,04,03,05,34,3.50
2020,04,03,05,35,3.50
2020,04,03,05,36,3.50
2020,04,03,05,37,3.50
2020,04,03,05,38,3.50
2020,04,03,05,39,3.40
2020,04,03,05,40,3.40
2020,04,03,05,41,3.40
2020,04,03,05,42,3.40
2020,04,03,05,43,3.40
2020,04,03,05,44,3.40
2020,04,03,05,45,3.40
2020,04,03,05,46,3.40
2020,04,03,05,47,3.30
2020,04,03,05,48,3.30
2020,04,03,05,49,3.30
2020,04,03,05,50,3.30
2020,04,03,05,51,3.30
2020,04,03,05,52,3.30
2020,04,03,05,53,3.30
2020,04,03,05,54,3.30
2020,04,03,05,55,3.30
2020,04,03,05,56,3.30
2020,04,03,05,57,3.30
2020,04,03,05,58,3.30
2020,04,03,05,59,3.20
2020,04,03,06,00,3.20
2020,04,03,06,01,3.20
2020,04,03,06,02,3.20
2020,04,03,06,03,3.20
2020,04,03,06,04,3.20
2020,04,03,06,05,3.10
2020,04,03,06,06,3.10
2020,04,03,06,07,3.10
2020,04,03,06,08,3.10
2020,04,03,06,09,3.10
2020,04,03,06,10,3.10
2020,04,03,06,11,3.10
2020,04,03,06,12,3.10
2020,04,03,06,13,3.00
2020,04,03,06,14,3.00
2020,04,03,06,15,3.00
2020,04,03,06,16,3.00
2020,04,03,06,17,2.90
2020,04,03,06,18,2.90
2020,04,03,06,19,2.90
2020,04,03,06,20,2.90
2020,04,03,06,21,2.90
2020,04,03,06,22,2.90
2020,04,03,06,23,2.90
2020,04,03,06,24,2.90
2020,04,03,06,25,2.90
2020,04,03,06,26,2.90
2020,04,03,06,27,2.90
2020,04,03,06,28,2.90
2020,04,03,06,29,2.90
2020,04,03,06,30,2.90
2020,04,03,06,31,2.90
2020,04,03,06,32,2.90
2020,04,03,06,33,2.90
2020,04,03,06,34,3.00
2020,04,03,06,35,3.00
2020,04,03,06,36,3.10
2020,04,03,06,37,3.10
2020,04,03,06,38,3.10
2020,04,03,06,39,3.10
2020,04,03,06,40,3.20
2020,04,03,06,41,3.20
2020,04,03,06,42,3.20
2020,04,03,06,43,3.30
2020,04,03,06,44,3.30
2020,04,03,06,45,3.30
2020,04,03,06,46,3.30
2020,04,03,06,47,3.40
2020,04,03,06,48,3.40
2020,04,03,06,49,3.40
2020,04,03,06,50,3.40
2020,04,03,06,51,3.40
2020,04,03,06,52,3.40
2020,04,03,06,53,3.40
2020,04,03,06,54,3.40
2020,04,03,06,55,3.40
2020,04,03,06,56,3.40
2020,04,03,06,57,3.40
2020,04,03,06,58,3.40
2020,04,03,06,59,3.40
2020,04,03,07,00,3.40
2020,04,03,07,01,3.40
2020,04,03,07,02,3.40
2020,04,03,07,03,3.40
2020,04,03,07,04,3.30
2020,04,03,07,05,3.30
2020,04,03,07,06,3.30
2020,04,03,07,07,3.30
2020,04,03,07,08,3.30
2020,04,03,07,09,3.30
2020,04,03,07,10,3.30
2020,04,03,07,11,3.30
2020,04,03,07,12,3.30
2020,04,03,07,13,3.30
2020,04,03,07,14,3.30
2020,04,03,07,15,3.30
2020,04,03,07,16,3.30
2020,04,03,07,17,3.30
2020,04,03,07,18,3.30
2020,04,03,07,19,3.30
2020,04,03,07,20,3.30
2020,04,03,07,21,3.20
2020,04,03,07,22,3.20
2020,04,03,07,23,3.20
2020,04,03,07,24,3.30
2020,04,03,07,25,3.20
2020,04,03,07,26,3.20
2020,04,03,07,27,3.20
2020,04,03,07,28,3.20
2020,04,03,07,29,3.20
2020,04,03,07,30,3.20
2020,04,03,07,31,3.20
2020,04,03,07,32,3.20
2020,04,03,07,33,3.20
2020,04,03,07,34,3.20
2020,04,03,07,35,3.20
2020,04,03,07,36,3.20
2020,04,03,07,37,3.20
2020,04,03,07,38,3.20
2020,04,03,07,39,3.20
2020,04,03,07,40,3.20
2020,04,03,07,41,3.20
2020,04,03,07,42,3.30
2020,04,03,07,43,3.30
2020,04,03,07,44,3.30
2020,04,03,07,45,3.30
2020,04,03,07,46,3.30
2020,04,03,07,47,3.30
2020,04,03,07,48,3.30
2020,04,03,07,49,3.30
2020,04,03,07,50,3.30
2020,04,03,07,51,3.30
2020,04,03,07,52,3.30
2020,04,03,07,53,3.30
2020,04,03,07,54,3.30
2020,04,03,07,55,3.30
2020,04,03,07,56,3.30
2020,04,03,07,57,3.30
2020,04,03,07,58,3.30
2020,04,03,07,59,3.30
2020,04,03,08,00,3.30
2020,04,03,08,01,3.30
2020,04,03,08,02,3.30
2020,04,03,08,03,3.30
2020,04,03,08,04,3.30
2020,04,03,08,05,3.30
2020,04,03,08,06,3.40
2020,04,03,08,07,3.40
2020,04,03,08,08,3.40
2020,04,03,08,09,3.40
2020,04,03,08,10,3.40
2020,04,03,08,11,3.40
2020,04,03,08,12,3.50
2020,04,03,08,13,3.50
2020,04,03,08,14,3.50
2020,04,03,08,15,3.50
2020,04,03,08,16,3.50
2020,04,03,08,17,3.60
2020,04,03,08,18,3.60
2020,04,03,08,19,3.60
2020,04,03,08,20,3.60
2020,04,03,08,21,3.60
2020,04,03,08,22,3.70
2020,04,03,08,23,3.70
2020,04,03,08,24,3.70
2020,04,03,08,25,3.70
2020,04,03,08,26,3.70
2020,04,03,08,27,3.70
2020,04,03,08,28,3.80
2020,04,03,08,29,3.80
2020,04,03,08,30,3.80
2020,04,03,08,31,3.90
2020,04,03,08,32,3.90
2020,04,03,08,33,4.00
2020,04,03,08,34,4.00
2020,04,03,08,35,4.10
2020,04,03,08,36,4.10
2020,04,03,08,37,4.20
2020,04,03,08,38,4.20
2020,04,03,08,39,4.30
2020,04,03,08,40,4.30
2020,04,03,08,41,4.30
2020,04,03,08,42,4.40
2020,04,03,08,43,4.40
2020,04,03,08,44,4.50
2020,04,03,08,45,4.60
2020,04,03,08,46,4.60
2020,04,03,08,47,4.60
2020,04,03,08,48,4.70
2020,04,03,08,49,4.80
2020,04,03,08,50,4.80
2020,04,03,08,51,4.80
2020,04,03,08,52,4.80
2020,04,03,08,53,4.90
2020,04,03,08,54,4.90
2020,04,03,08,55,4.90
2020,04,03,08,56,4.90
2020,04,03,08,57,5.00
2020,04,03,08,58,5.00
2020,04,03,08,59,5.00
2020,04,03,09,00,5.00
2020,04,03,09,01,5.00
2020,04,03,09,02,5.00
2020,04,03,09,03,5.00
2020,04,03,09,04,5.00
2020,04,03,09,05,5.00
2020,04,03,09,06,5.00
2020,04,03,09,07,5.00
2020,04,03,09,08,5.10
2020,04,03,09,09,5.10
2020,04,03,09,10,5.10
2020,04,03,09,11,5.10
2020,04,03,09,12,5.10
2020,04,03,09,13,5.20
2020,04,03,09,14,5.20
2020,04,03,09,15,5.20
2020,04,03,09,16,5.20
2020,04,03,09,17,5.30
2020,04,03,09,18,5.30
2020,04,03,09,19,5.30
2020,04,03,09,20,5.30
2020,04,03,09,21,5.30
2020,04,03,09,22,5.40
2020,04,03,09,23,5.40
2020,04,03,09,24,5.40
2020,04,03,09,25,5.40
2020,04,03,09,26,5.40
2020,04,03,09,27,5.40
2020,04,03,09,28,5.40
2020,04,03,09,29,5.40
2020,04,03,09,30,5.50
2020,04,03,09,31,5.50
2020,04,03,09,32,5.50
2020,04,03,09,33,5.50
2020,04,03,09,34,5.50
2020,04,03,09,35,5.60
2020,04,03,09,36,5.60
2020,04,03,09,37,5.60
2020,04,03,09,38,5.60
2020,04,03,09,39,5.60
2020,04,03,09,40,5.60
2020,04,03,09,41,5.60
2020,04,03,09,42,5.60
2020,04,03,09,43,5.60
2020,04,03,09,44,5.60
2020,04,03,09,45,5.60
2020,04,03,09,46,5.60
2020,04,03,09,47,5.60
2020,04,03,09,48,5.60
2020,04,03,09,49,5.60
2020,04,03,09,50,5.60
2020,04,03,09,51,5.50
2020,04,03,09,52,5.50
2020,04,03,09,53,5.50
2020,04,03,09,54,5.50
2020,04,03,09,55,5.50
2020,04,03,09,56,5.50
2020,04,03,09,57,5.50
2020,04,03,09,58,5.50
2020,04,03,09,59,5.50
2020,04,03,10,00,5.50
2020,04,03,10,01,5.50
2020,04,03,10,02,5.50
2020,04,03,10,03,5.40
2020,04,03,10,04,5.40
2020,04,03,10,05,5.40
2020,04,03,10,06,5.40
2020,04,03,10,07,5.40
2020,04,03,10,08,5.40
2020,04,03,10,09,5.40
2020,04,03,10,10,5.40
2020,04,03,10,11,5.50
2020,04,03,10,12,5.50
2020,04,03,10,13,5.60
2020,04,03,10,14,5.60
2020,04,03,10,15,5.60
2020,04,03,10,16,5.70
2020,04,03,10,17,5.70
2020,04,03,10,18,5.70
2020,04,03,10,19,5.70
2020,04,03,10,20,5.70
2020,04,03,10,21,5.80
2020,04,03,10,22,5.80
2020,04,03,10,23,5.80
2020,04,03,10,24,5.80
2020,04,03,10,25,5.80
2020,04,03,10,26,5.80
2020,04,03,10,27,5.80
2020,04,03,10,28,5.80
2020,04,03,10,29,5.80
2020,04,03,10,30,5.80
2020,04,03,10,31,5.80
2020,04,03,10,32,5.80
2020,04,03,10,33,5.80
2020,04,03,10,34,5.80
2020,04,03,10,35,5.80
2020,04,03,10,36,5.80
2020,04,03,10,37,5.80
2020,04,03,10,38,5.80
2020,04,03,10,39,5.70
2020,04,03,10,40,5.70
2020,04,03,10,41,5.70
2020,04,03,10,42,5.70
2020,04,03,10,43,5.70
2020,04,03,10,44,5.70
2020,04,03,10,45,5.70
2020,04,03,10,46,5.70
2020,04,03,10,47,5.70
2020,04,03,10,48,5.60
2020,04,03,10,49,5.60
2020,04,03,10,50,5.60
2020,04,03,10,51,5.50
2020,04,03,10,52,5.50
2020,04,03,10,53,5.60
2020,04,03,10,54,5.50
2020,04,03,10,55,5.50
2020,04,03,10,56,5.50
2020,04,03,10,57,5.50
2020,04,03,10,58,5.50
2020,04,03,10,59,5.50
2020,04,03,11,00,5.50
2020,04,03,11,01,5.60
2020,04,03,11,02,5.60
2020,04,03,11,03,5.60
2020,04,03,11,04,5.60
2020,04,03,11,05,5.60
2020,04,03,11,06,5.50
2020,04,03,11,07,5.50
2020,04,03,11,08,5.50
2020,04,03,11,09,5.40
2020,04,03,11,10,5.40
2020,04,03,11,11,5.30
2020,04,03,11,12,5.30
2020,04,03,11,13,5.30
2020,04,03,11,14,5.30
2020,04,03,11,15,5.20
2020,04,03,11,16,5.20
2020,04,03,11,17,5.20
2020,04,03,11,18,5.20
2020,04,03,11,19,5.20
2020,04,03,11,20,5.20
2020,04,03,11,21,5.20
2020,04,03,11,22,5.30
2020,04,03,11,23,5.20
2020,04,03,11,24,5.30
2020,04,03,11,25,5.20
2020,04,03,11,26,5.20
2020,04,03,11,27,5.20
2020,04,03,11,28,5.20
2020,04,03,11,29,5.20
2020,04,03,11,30,5.20
2020,04,03,11,31,5.30
2020,04,03,11,32,5.30
2020,04,03,11,33,5.30
2020,04,03,11,34,5.30
2020,04,03,11,35,5.30
2020,04,03,11,36,5.20
2020,04,03,11,37,5.20
2020,04,03,11,38,5.20
2020,04,03,11,39,5.10
2020,04,03,11,40,5.10
2020,04,03,11,41,5.10
2020,04,03,11,42,5.10
2020,04,03,11,43,5.20
2020,04,03,11,44,5.20
2020,04,03,11,45,5.30
2020,04,03,11,46,5.50
2020,04,03,11,47,5.50
2020,04,03,11,48,5.60
2020,04,03,11,49,5.70
2020,04,03,11,50,5.70
2020,04,03,11,51,5.70
2020,04,03,11,52,5.70
2020,04,03,11,53,5.70
2020,04,03,11,54,5.70
2020,04,03,11,55,5.70
2020,04,03,11,56,5.70
2020,04,03,11,57,5.70
2020,04,03,11,58,5.60
2020,04,03,11,59,5.60
2020,04,03,12,00,5.60
2020,04,03,12,01,5.60
2020,04,03,12,02,5.60
2020,04,03,12,03,5.60
2020,04,03,12,04,5.60
2020,04,03,12,05,5.50
2020,04,03,12,06,5.50
2020,04,03,12,07,5.40
2020,04,03,12,08,5.40
2020,04,03,12,09,5.30
2020,04,03,12,10,5.30
2020,04,03,12,11,5.30
2020,04,03,12,12,5.30
2020,04,03,12,13,5.30
2020,04,03,12,14,5.20
2020,04,03,12,15,5.20
2020,04,03,12,16,5.20
2020,04,03,12,17,5.20
2020,04,03,12,18,5.10
2020,04,03,12,19,5.10
2020,04,03,12,20,5.00
2020,04,03,12,21,4.90
2020,04,03,12,22,4.80
2020,04,03,12,23,4.70
2020,04,03,12,24,4.70
2020,04,03,12,25,4.60
2020,04,03,12,26,4.50
2020,04,03,12,27,4.40
2020,04,03,12,28,4.40
2020,04,03,12,29,4.40
2020,04,03,12,30,4.30
2020,04,03,12,31,4.30
2020,04,03,12,32,4.20
2020,04,03,12,33,4.20
2020,04,03,12,34,4.10
2020,04,03,12,35,3.90
2020,04,03,12,36,3.80
2020,04,03,12,37,3.60
2020,04,03,12,38,3.50
2020,04,03,12,39,3.40
2020,04,03,12,40,3.40
2020,04,03,12,41,3.40
2020,04,03,12,42,3.40
2020,04,03,12,43,3.30
2020,04,03,12,44,3.30
2020,04,03,12,45,3.30
2020,04,03,12,46,3.20
2020,04,03,12,47,3.20
2020,04,03,12,48,3.20
2020,04,03,12,49,3.10
2020,04,03,12,50,3.10
2020,04,03,12,51,3.00
2020,04,03,12,52,3.00
2020,04,03,12,53,3.00
2020,04,03,12,54,2.90
2020,04,03,12,55,3.00
2020,04,03,12,56,3.00
2020,04,03,12,57,3.10
2020,04,03,12,58,3.10
2020,04,03,12,59,3.10
2020,04,03,13,00,3.10
2020,04,03,13,01,3.10
2020,04,03,13,02,3.10
2020,04,03,13,03,3.10
2020,04,03,13,04,3.10
2020,04,03,13,05,3.10
2020,04,03,13,06,3.20
2020,04,03,13,07,3.20
2020,04,03,13,08,3.30
2020,04,03,13,09,3.30
2020,04,03,13,10,3.30
2020,04,03,13,11,3.40
2020,04,03,13,12,3.40
2020,04,03,13,13,3.50
2020,04,03,13,14,3.60
2020,04,03,13,15,3.60
2020,04,03,13,16,3.70
2020,04,03,13,17,3.70
2020,04,03,13,18,3.80
2020,04,03,13,19,3.80
2020,04,03,13,20,3.90
2020,04,03,13,21,3.90
2020,04,03,13,22,3.90
2020,04,03,13,23,4.00
2020,04,03,13,24,4.00
2020,04,03,13,25,4.00
2020,04,03,13,26,4.10
2020,04,03,13,27,4.10
2020,04,03,13,28,4.10
2020,04,03,13,29,4.20
2020,04,03,13,30,4.20
2020,04,03,13,31,4.20
2020,04,03,13,32,4.20
2020,04,03,13,33,4.20
2020,04,03,13,34,4.20
2020,04,03,13,35,4.20
2020,04,03,13,36,4.30
2020,04,03,13,37,4.30
2020,04,03,13,38,4.30
2020,04,03,13,39,4.40
2020,04,03,13,40,4.40
2020,04,03,13,41,4.40
2020,04,03,13,42,4.40
2020,04,03,13,43,4.40
2020,04,03,13,44,4.50
2020,04,03,13,45,4.50
2020,04,03,13,46,4.50
2020,04,03,13,47,4.50
2020,04,03,13,48,4.50
2020,04,03,13,49,4.40
2020,04,03,13,50,4.40
2020,04,03,13,51,4.40
2020,04,03,13,52,4.40
2020,04,03,13,53,4.40
2020,04,03,13,54,4.40
2020,04,03,13,55,4.40
2020,04,03,13,56,4.40
2020,04,03,13,57,4.40
2020,04,03,13,58,4.40
2020,04,03,13,59,4.30
2020,04,03,14,00,4.30
2020,04,03,14,01,4.30
2020,04,03,14,02,4.30
2020,04,03,14,03,4.30
2020,04,03,14,04,4.30
2020,04,03,14,05,4.30
2020,04,03,14,06,4.30
2020,04,03,14,07,4.40
2020,04,03,14,08,4.50
2020,04,03,14,09,4.50
2020,04,03,14,10,4.60
2020,04,03,14,11,4.60
2020,04,03,14,12,4.60
2020,04,03,14,13,4.60
2020,04,03,14,14,4.70
2020,04,03,14,15,4.70
2020,04,03,14,16,4.70
2020,04,03,14,17,4.70
2020,04,03,14,18,4.70
2020,04,03,14,19,4.80
2020,04,03,14,20,4.80
2020,04,03,14,21,4.80
2020,04,03,14,22,4.80
2020,04,03,14,23,4.80
2020,04,03,14,24,4.80
2020,04,03,14,25,4.80
2020,04,03,14,26,4.80
2020,04,03,14,27,4.90
2020,04,03,14,28,4.90
2020,04,03,14,29,5.00
2020,04,03,14,30,5.10
2020,04,03,14,31,5.20
2020,04,03,14,32,5.20
2020,04,03,14,33,5.30
2020,04,03,14,34,5.40
2020,04,03,14,35,5.40
2020,04,03,14,36,5.50
2020,04,03,14,37,5.60
2020,04,03,14,38,5.70
2020,04,03,14,39,5.80
2020,04,03,14,40,5.90
2020,04,03,14,41,5.90
2020,04,03,14,42,6.00
2020,04,03,14,43,6.00
2020,04,03,14,44,6.10
2020,04,03,14,45,6.10
2020,04,03,14,46,6.20
2020,04,03,14,47,6.30
2020,04,03,14,48,6.40
2020,04,03,14,49,6.50
2020,04,03,14,50,6.60
2020,04,03,14,51,6.70
2020,04,03,14,52,6.90
2020,04,03,14,53,7.00
2020,04,03,14,54,7.10
2020,04,03,14,55,7.10
2020,04,03,14,56,7.20
2020,04,03,14,57,7.30
2020,04,03,14,58,7.30
2020,04,03,14,59,7.30
2020,04,03,15,00,7.30
2020,04,03,15,01,7.30
2020,04,03,15,02,7.20
2020,04,03,15,03,7.20
2020,04,03,15,04,7.10
2020,04,03,15,05,7.10
2020,04,03,15,06,7.00
2020,04,03,15,07,6.90
2020,04,03,15,08,6.90
2020,04,03,15,09,6.90
2020,04,03,15,10,6.80
2020,04,03,15,11,6.80
2020,04,03,15,12,6.80
2020,04,03,15,13,6.70
2020,04,03,15,14,6.70
2020,04,03,15,15,6.60
2020,04,03,15,16,6.60
2020,04,03,15,17,6.60
2020,04,03,15,18,6.50
2020,04,03,15,19,6.50
2020,04,03,15,20,6.50
2020,04,03,15,21,6.50
2020,04,03,15,22,6.50
2020,04,03,15,23,6.40
2020,04,03,15,24,6.40
2020,04,03,15,25,6.40
2020,04,03,15,26,6.40
2020,04,03,15,27,6.40
2020,04,03,15,28,6.40
2020,04,03,15,29,6.40
2020,04,03,15,30,6.40
2020,04,03,15,31,6.30
2020,04,03,15,32,6.30
2020,04,03,15,33,6.30
2020,04,03,15,34,6.30
2020,04,03,15,35,6.30
2020,04,03,15,36,6.20
2020,04,03,15,37,6.20
2020,04,03,15,38,6.20
2020,04,03,15,39,6.20
2020,04,03,15,40,6.20
2020,04,03,15,41,6.20
2020,04,03,15,42,6.20
2020,04,03,15,43,6.20
2020,04,03,15,44,6.30
2020,04,03,15,45,6.30
2020,04,03,15,46,6.30
2020,04,03,15,47,6.30
2020,04,03,15,48,6.30
2020,04,03,15,49,6.40
2020,04,03,15,50,6.40
2020,04,03,15,51,6.50
2020,04,03,15,52,6.60
2020,04,03,15,53,6.60
2020,04,03,15,54,6.60
2020,04,03,15,55,6.60
2020,04,03,15,56,6.70
2020,04,03,15,57,6.70
2020,04,03,15,58,6.60
2020,04,03,15,59,6.60
2020,04,03,16,00,6.60
2020,04,03,16,01,6.70
2020,04,03,16,02,6.70
2020,04,03,16,03,6.70
2020,04,03,16,04,6.70
2020,04,03,16,05,6.60
2020,04,03,16,06,6.60
2020,04,03,16,07,6.60
2020,04,03,16,08,6.60
2020,04,03,16,09,6.70
2020,04,03,16,10,6.80
2020,04,03,16,11,7.00
2020,04,03,16,12,7.00
2020,04,03,16,13,7.10
2020,04,03,16,14,7.10
2020,04,03,16,15,7.10
2020,04,03,16,16,7.00
2020,04,03,16,17,7.00
2020,04,03,16,18,6.90
2020,04,03,16,19,6.90
2020,04,03,16,20,6.90
2020,04,03,16,21,6.90
2020,04,03,16,22,6.90
2020,04,03,16,23,6.80
2020,04,03,16,24,6.90
2020,04,03,16,25,6.80
2020,04,03,16,26,6.80
2020,04,03,16,27,6.80
2020,04,03,16,28,6.70
2020,04,03,16,29,6.60
2020,04,03,16,30,6.60
2020,04,03,16,31,6.40
2020,04,03,16,32,6.40
2020,04,03,16,33,6.30
2020,04,03,16,34,6.30
2020,04,03,16,35,6.30
2020,04,03,16,36,6.20
2020,04,03,16,37,6.20
2020,04,03,16,38,6.10
2020,04,03,16,39,6.10
2020,04,03,16,40,6.10
2020,04,03,16,41,6.00
2020,04,03,16,42,6.00
2020,04,03,16,43,6.00
2020,04,03,16,44,6.00
2020,04,03,16,45,6.00
2020,04,03,16,46,6.00
2020,04,03,16,47,6.00
2020,04,03,16,48,6.00
2020,04,03,16,49,6.00
2020,04,03,16,50,6.00
2020,04,03,16,51,6.10
2020,04,03,16,52,6.10
2020,04,03,16,53,6.10
2020,04,03,16,54,6.10
2020,04,03,16,55,6.10
2020,04,03,16,56,6.00
2020,04,03,16,57,6.00
2020,04,03,16,58,6.00
2020,04,03,16,59,6.00
2020,04,03,17,00,6.00
2020,04,03,17,01,6.00
2020,04,03,17,02,6.10
2020,04,03,17,03,6.10
2020,04,03,17,04,6.10
2020,04,03,17,05,6.10
2020,04,03,17,06,6.10
2020,04,03,17,07,6.10
2020,04,03,17,08,6.10
2020,04,03,17,09,6.10
2020,04,03,17,10,6.10
2020,04,03,17,11,6.10
2020,04,03,17,12,6.10
2020,04,03,17,13,6.20
2020,04,03,17,14,6.20
2020,04,03,17,15,6.20
2020,04,03,17,16,6.20
2020,04,03,17,17,6.20
2020,04,03,17,18,6.20
2020,04,03,17,19,6.20
2020,04,03,17,20,6.10
2020,04,03,17,21,6.10
2020,04,03,17,22,6.00
2020,04,03,17,23,5.90
2020,04,03,17,24,5.90
2020,04,03,17,25,5.90
2020,04,03,17,26,5.80
2020,04,03,17,27,5.80
2020,04,03,17,28,5.70
2020,04,03,17,29,5.70
2020,04,03,17,30,5.70
2020,04,03,17,31,5.70
2020,04,03,17,32,5.60
2020,04,03,17,33,5.60
2020,04,03,17,34,5.60
2020,04,03,17,35,5.60
2020,04,03,17,36,5.60
2020,04,03,17,37,5.50
2020,04,03,17,38,5.50
2020,04,03,17,39,5.50
2020,04,03,17,40,5.50
2020,04,03,17,41,5.40
2020,04,03,17,42,5.40
2020,04,03,17,43,5.40
2020,04,03,17,44,5.40
2020,04,03,17,45,5.40
2020,04,03,17,46,5.40
2020,04,03,17,47,5.40
2020,04,03,17,48,5.40
2020,04,03,17,49,5.40
2020,04,03,17,50,5.40
2020,04,03,17,51,5.40
2020,04,03,17,52,5.40
2020,04,03,17,53,5.30
2020,04,03,17,54,5.40
2020,04,03,17,55,5.30
2020,04,03,17,56,5.30
2020,04,03,17,57,5.30
2020,04,03,17,58,5.30
2020,04,03,17,59,5.30
2020,04,03,18,00,5.30
2020,04,03,18,01,5.20
2020,04,03,18,02,5.20
2020,04,03,18,03,5.20
2020,04,03,18,04,5.20
2020,04,03,18,05,5.10
2020,04,03,18,06,5.10